INTELSAT 33E DEB, 61997

Orbit data source: Space-Track

INTELSAT 33E DEB, 61997 is space debris in GEO originally from a launch on Wed, 24 Aug 2016 UTC launched from the French Guiana (FRGUI). Debris objects in space refer to the collection of defunct objects orbiting the Earth. Examples of debris include non-operational satellites, rocket bodies, and fragments generated from explosions, collisions, or faulty payload assembly.

Loading next visibility...
Identifier
61997, 2016-053P
Orbit
GEO
Last TLE update
3 days ago
Origin
Manufacturer
Boeing/ES
Mission
Spacecraft
Bus & Motor
Unknown
Mass
Unknown
Launch date (UTC)
2016-08-24 (9 years ago)
Launch vehicle
Unknown
Launch site
French Guiana (FRGUI)
Object type
Payload
Rocket body
Debris
Shape & HBR
Unknown
Radar Cross Section
RCS unknown

Expand to show TLE details & history

TLE from 3 days ago
0 INTELSAT 33E DEB
1 61997U 16053P   25106.85549059  .00000041  00000-0  00000-0 0  9991
2 61997   0.4831  96.3811 0102632 251.7851  11.6065  1.01611447  1837
Epoch: 2025-04-16T20:31Z
Definitive object data (Epoch: 2025-04-16T20:31:54.386Z)
Latitude
-0.46132°
Longitude
-153.21265°
Altitude
34,994.061 km
Speed
3.12 km/s
True Right ascension
23h 59m 59s
True Declination
0° 27' 39"
Sunlit
Object was in daylight at TLE epoch
Visualization TLE readout
Latitude
-0.24993°
Longitude
-87.16187°
Altitude
35,317.871 km
Speed
3.095 km/s
Apparent Right ascension
04h 08m 20s
Apparent Declination
-6° 26' 49"
Sunlit
Object is in daylight
Visualization observer readout
Local Sidereal Time
06:32:29
Azimuth
224.171° SW
Elevation
32.974°
Doppler factor
1
Orbital elements
Apogee altitude
35,845.195 km
Perigee altitude
34,987.307 km
Semi-major axis
41,794.388 km
Eccentricity
0.0102632
Inclination
0.4831°
RAAN
96.3811°
Arg. of periapsis
251.7851°
True anomaly
11.84612°
Mean anomaly
11.6065°
Eccentric anomaly
11.72601°
Mean motion
0.25402 °/min
BSTAR
Unknown
Orbital period
1417.22 mins
Loading historical data...
61997 neighbors
Loading maneuver chart data...
Loading SW <> Apogee altitude chart data...
Loading historical data...
Loading historical data...
Loading historical data...
Loading historical data...
Loading historical data...
Loading historical data...
Loading historical data...

INTELSAT 33E DEB Visibility forecast

Observer location: undefined°, undefined°

Span
Click to sort rows by Start time (UTC) header in descending order
Start Az.
Max El. time (UTC)
Max El. Az.
Max El.
End time (UTC)
End Az.
1440 mins2025-04-19 23:39:40.527Z224.157° SW2025-04-20 23:39:40.527Z218.593° SW30.267°2025-04-20 23:39:40.527Z218.593° SW
|